Das Wetter in  D-61279 Heinzenberg / Taunus





Wetter Minimum- & Maximum-Werte im August 2008

Standort: Heinzenberg / Taunus - Höhe 297 m         8 24' 1" Ost 50 21' 51" Nord
(   3-stündige Aktualisierung    letzte Aktualisierung um 19:04 am 31.08.2008  )


Messgrösse

Minimum

Maximum

Durchschnitt

Temperatur West /
Luftfeuchte West
Anklicken für Monats-Diagramm

7,9 C

06:52
16.08.2008

42 %

17:03
06.08.2008

30,1 C

16:53
06.08.2008

92 %

05:26
09.08.2008

Temp

17,4 C

Feuchte

73 %

Temperatur Ost /
Luftfeuchte Ost
Anklicken für Monats-Diagramm

7,7 C

06:42
16.08.2008

--

--
--

31,5 C

16:18
06.08.2008

--

--
--

17,4 C

--

Luftdruck Anklicken für Monats-Diagramm

997,5 hPa

09:53
12.08.2008

1024,6 hPa

23:43
26.08.2008

1013,8 hPa

Taupunkt

5,7 C

06:38
17.08.2008

18,1 C

16:54
07.08.2008

12,2 C

Windchill
( gefühlte Temperatur )

4,2 C

04:44
23.08.2008

29,8 C

16:43
06.08.2008

15,5 C

Windgeschwindigkeit /
Windrichtung
Anklicken für Monats-Diagramm

---

54,5 km/h / W-SW

08:44
13.08.2008

10,8 km/h
W-SW

Helligkeit /
Sonnenschein
Anklicken für Monats-Diagramm
Anklicken für Monats-Diagramm

Sonnenschein:

170:58 Stunden

Max: 13:20 Std am
06.08.2008

115 klux

13:41
03.08.2008

32 klux

Solarstrahlung Anklicken für Monats-Diagramm

---

787 W/m

13:41
03.08.2008

235 W/m

Regenmenge
    August 2008
Anklicken für Monats-Diagramm

Insgesamt 52,7 l/m

in 45:41 Stunden
an 19 Tagen

14,0 l/m

23:05
07.08.2008

Gesamtmenge

52,7 l/m

Regen-Tage
    August 2008
Anklicken für Monats-Diagramm

>   0 mm/Tag

>   2 mm/Tag

>   5 mm/Tag

> 10 mm/Tag

> 20 mm/Tag

19 Tage     
5 Tage     
3 Tage     
3 Tage     
0 Tage     

Eisige Tage August 2008 / 2007

Tmin ≤ -10C     

0 Tage

/

0 Tage

Eistage August 2008 / 2007

Tmax <     0C     

0 Tage

/

0 Tage

Frosttage August 2008 / 2007

Tmin ≤     0C     

0 Tage

/

0 Tage

Kalte Tage August 2008 / 2007

Tmax <   10C     

0 Tage

/

0 Tage

Warme Tage August 2008 / 2007

Tmax ≥   20C     

27 Tage

/

23 Tage

Sommertage August 2008 / 2007

Tmax ≥   25C     

8 Tage

/

8 Tage

Heisse Tage August 2008 / 2007

Tmax ≥   30C     

  1 Tag

/

  1 Tag


Monatsdiagramm August 2008

Die Kurven zeigen den Durchschnittswert des jeweiligen Tages an


Wetter-Monatsübersicht August 2008
Datum
  Temperatur
   Luftdruck
   Wind
  Regen
   Luftfeuchte
   Helligkeit

Sonnen-
schein


Temp.

Min.
Temp.

Max.
Temp.


Luftdruck

Min.
Luftdruck

Max.
Luftdruck

-Geschw.
Haupt-Richtg.

Max.
Wind

Menge /
Dauer


Feuchte

Min.
Feuchte

Max.
Feuchte


Helligkeit

Max.
Helligkeit

1.
August
21,8 C18,5 C
06:19
26,1 C
14:34
1015,0 hPa1012,4 hPa
01:14
1018,8 hPa
23:55
13,4 km/h
W-SW
38,3 km/h
16:24  
---
64 %51 %
14:44
78 %
08:34
29,7 klux110,0 klux
14:19
3:05 Std 
2.
August
19,0 C13,3 C
07:05
24,6 C
16:35
1017,6 hPa1015,2 hPa
16:55
1019,6 hPa
07:05
9,4 km/h
W-SW
34,3 km/h
16:35  
---
35 Minuten
66 %49 %
16:40
82 %
08:10
24 klux98 klux
13:50
2:35 Std 
3.
August
20,2 C16,2 C
05:36
25,8 C
15:46
1014,6 hPa1009,3 hPa
23:32
1017,0 hPa
08:26
19,2 km/h
W-SW
38,7 km/h
10:01  
1,7 l/m
50 Minuten
70 %54 %
15:36
88 %
04:31
42,9 klux115,0 klux
13:41
7:55 Std 
4.
August
19,0 C14,5 C
23:53
23,4 C
17:17
1009,4 hPa1005,2 hPa
03:42
1014,2 hPa
23:53
20,2 km/h
W
46,3 km/h
03:12  
4,7 l/m
4:00 Stunden
71 %52 %
18:07
91 %
10:17
39 klux108 klux
13:47
7:40 Std 
5.
August
17,6 C11,6 C
06:58
25,0 C
17:23
1016,2 hPa1014,3 hPa
00:03
1018,3 hPa
23:58
7,0 km/h
NW
27,9 km/h
13:13  
---
67 %48 %
16:43
82 %
07:48
44 klux100 klux
12:43
9:20 Std 
6.
August
20,9 C12,5 C
07:03
30,1 C
16:53
1014,8 hPa1011,4 hPa
16:48
1018,5 hPa
04:23
5,0 km/h
SO
23,1 km/h
15:38  
---
64 %42 %
17:03
85 %
07:48
47 klux83 klux
13:03
13:20 Std 
7.
August
21,5 C15,3 C
06:29
29,9 C
14:39
1007,8 hPa1004,2 hPa
14:39
1012,8 hPa
00:59
12,3 km/h
W
45,2 km/h
23:05  
14,0 l/m
2:06 Stunden
66 %45 %
14:39
85 %
23:55
37,9 klux90,1 klux
14:24
8:00 Std 
8.
August
15,7 C14,2 C
17:45
20,7 C
16:05
1008,0 hPa1005,9 hPa
07:05
1013,2 hPa
23:51
12,9 km/h
W-SW
41,1 km/h
17:15  
11,6 l/m
7:59 Stunden
88 %73 %
16:15
91 %
10:55
25,5 klux102,0 klux
13:30
2:49 Std 
9.
August
16,2 C12,8 C
04:56
22,4 C
16:51
1015,1 hPa1013,2 hPa
00:01
1017,4 hPa
10:26
10,9 km/h
W
31,6 km/h
12:26  
0,2 l/m
30 Minuten
75 %50 %
17:16
92 %
05:26
41 klux101 klux
12:21
8:04 Std 
10.
August
17,9 C13,6 C
00:01
21,5 C
17:16
1010,3 hPa1008,2 hPa
17:16
1014,4 hPa
00:01
10,5 km/h
W-SW
33,5 km/h
14:46  
0,3 l/m
2:45 Stunden
71 %62 %
20:11
77 %
00:21
20 klux81 klux
15:31
1:15 Std 
11.
August
18,8 C14,7 C
07:22
23,7 C
15:32
1006,7 hPa1003,3 hPa
19:57
1009,0 hPa
07:22
9,2 km/h
W-SW
27,1 km/h
16:07  
---
51 Minuten
70 %58 %
16:12
82 %
08:22
35,4 klux103,0 klux
12:27
4:50 Std 
12.
August
17,0 C14,2 C
04:53
20,0 C
15:58
1000,0 hPa997,5 hPa
09:53
1003,5 hPa
00:13
14,7 km/h
W-SW
37,4 km/h
17:23  
12,3 l/m
7:50 Stunden
87 %79 %
00:03
92 %
08:13
14 klux59 klux
15:38
25 Min 
13.
August
16,9 C14,4 C
06:04
21,0 C
17:19
1008,6 hPa1002,5 hPa
00:04
1013,1 hPa
22:30
29,1 km/h
W-SW
54,5 km/h
08:44  
0,6 l/m
2:20 Stunden
70 %54 %
17:24
83 %
00:04
40,9 klux104,0 klux
12:54
9:10 Std 
14.
August
16,9 C12,3 C
23:56
22,0 C
17:15
1015,2 hPa1013,1 hPa
00:00
1017,3 hPa
08:45
11,1 km/h
W-SW
28,7 km/h
01:50  
0,2 l/m
5 Minuten
65 %51 %
16:25
77 %
06:35
40 klux98 klux
12:45
8:10 Std 
15.
August
14,8 C11,6 C
01:31
21,0 C
16:56
1013,9 hPa1012,4 hPa
16:56
1015,6 hPa
23:57
2,8 km/h
NO
26,1 km/h
20:21  
0,5 l/m
1:50 Stunden
76 %59 %
17:56
88 %
08:26
23,9 klux102,0 klux
14:51
3:05 Std 
16.
August
14,9 C7,9 C
06:52
23,8 C
15:42
1013,3 hPa1010,2 hPa
17:17
1016,1 hPa
06:52
3,2 km/h
W-SW
17,5 km/h
18:07  
---
71 %47 %
17:27
90 %
09:12
43 klux87 klux
13:17
10:30 Std 
17.
August
15,8 C8,2 C
06:38
23,4 C
15:08
1010,9 hPa1009,1 hPa
17:58
1011,9 hPa
06:38
5,4 km/h
W-SW
27,2 km/h
15:13  
---
67 %43 %
14:58
87 %
08:53
39,0 klux85,8 klux
13:48
7:05 Std 
18.
August
19,3 C15,1 C
05:34
23,9 C
18:14
1011,5 hPa1010,0 hPa
18:14
1013,1 hPa
07:34
13,0 km/h
W-SW
36,0 km/h
13:29  
0,2 l/m
1:05 Stunden
68 %52 %
19:09
83 %
07:29
34,0 klux115,0 klux
12:19
4:55 Std 
19.
August
17,9 C15,2 C
23:46
21,1 C
00:45
1010,9 hPa1009,7 hPa
17:15
1012,1 hPa
23:46
15,2 km/h
W-SW
33,9 km/h
11:35  
0,3 l/m
55 Minuten
74 %60 %
00:40
83 %
22:31
15 klux74 klux
15:30
10 Min 
20.
August
16,4 C14,4 C
23:52
19,1 C
15:31
1014,3 hPa1011,1 hPa
03:06
1018,4 hPa
23:52
19,3 km/h
W-SW
51,2 km/h
12:01  
0,3 l/m
1:05 Stunden
74 %62 %
18:41
84 %
02:56
29,8 klux94,7 klux
12:16
3:40 Std 
21.
August
16,7 C10,6 C
06:37
22,2 C
15:57
1018,3 hPa1016,5 hPa
16:47
1019,9 hPa
06:37
10,8 km/h
W-SW
30,2 km/h
10:37  
---
71 %57 %
16:02
87 %
07:47
30,9 klux102,0 klux
12:02
5:45 Std 
22.
August
17,1 C13,3 C
23:54
22,0 C
12:33
1013,3 hPa1009,9 hPa
18:23
1018,0 hPa
00:03
7,0 km/h
W-SW
27,0 km/h
19:28  
4,0 l/m
5:55 Stunden
75 %62 %
12:38
90 %
23:04
22 klux96 klux
12:28
2:00 Std 
23.
August
13,6 C10,1 C
06:29
17,4 C
17:29
1012,6 hPa1011,3 hPa
00:04
1014,4 hPa
10:44
17,9 km/h
W
43,1 km/h
13:49  
0,2 l/m
1:40 Stunden
79 %59 %
16:54
91 %
00:29
33,7 klux99,6 klux
11:59
5:25 Std 
24.
August
15,1 C11,4 C
03:00
20,0 C
17:20
1014,4 hPa1013,3 hPa
00:00
1015,4 hPa
09:30
10,8 km/h
W
26,1 km/h
00:05  
---
73 %56 %
17:20
86 %
02:50
36 klux103 klux
13:30
5:20 Std 
25.
August
15,3 C12,8 C
05:21
19,4 C
17:46
1017,2 hPa1015,3 hPa
00:01
1020,5 hPa
23:52
6,0 km/h
W-SW
25,7 km/h
12:11  
2,0 l/m
3:10 Stunden
84 %74 %
00:01
90 %
08:16
18 klux60 klux
17:31
55 Min 
26.
August
15,8 C10,4 C
04:42
22,0 C
17:17
1022,7 hPa1020,6 hPa
00:02
1024,6 hPa
23:43
4,5 km/h
W-SW
30,0 km/h
13:02  
---
80 %65 %
17:22
92 %
09:37
22,8 klux73,4 klux
16:42
2:10 Std 
27.
August
17,3 C10,6 C
06:38
25,5 C
16:53
1022,0 hPa1019,2 hPa
16:53
1024,0 hPa
06:43
7,4 km/h
W-NW
24,9 km/h
12:38  
---
76 %54 %
16:58
92 %
09:28
40,9 klux82,4 klux
11:38
9:30 Std 
28.
August
16,9 C14,8 C
06:24
19,8 C
15:04
1020,5 hPa1019,0 hPa
19:34
1021,4 hPa
00:34
5,0 km/h
W-NW
17,3 km/h
15:24  
---
10 Minuten
76 %65 %
15:19
86 %
06:24
18,5 klux67,3 klux
11:59
10 Min 
29.
August
17,4 C13,8 C
23:55
22,2 C
15:00
1020,0 hPa1018,5 hPa
17:05
1021,6 hPa
23:55
6,6 km/h
W
20,3 km/h
16:00  
---
76 %64 %
17:20
83 %
06:15
22,4 klux88,1 klux
14:10
2:30 Std 
30.
August
17,6 C10,3 C
07:15
26,6 C
16:50
1019,5 hPa1015,9 hPa
17:20
1022,0 hPa
07:40
5,0 km/h
SO
24,5 km/h
16:40  
---
72 %46 %
16:55
92 %
10:30
42,6 klux76,7 klux
13:05
11:35 Std 
31.
August
18,8 C10,3 C
07:16
26,9 C
16:01
1014,8 hPa1011,8 hPa
17:31
1018,4 hPa
00:11
9,0 km/h
O-SO
33,5 km/h
11:51  
---
66 %46 %
14:16
86 %
07:31
40,3 klux86,1 klux
13:56
9:35 Std 



August
2008

Temperatur

  

Luftdruck

  

Wind

  

Regen

  

Luftfeuchte

  

Helligkeit

Sonnen-
schein

Min

Max

Min

Max

Max

Max

Min

Max

Max

Max

17,4 C

7,9 C

06:52 Uhr
16.08.2008

30,1 C

16:53 Uhr
06.08.2008

1013,8 hPa

997,5 hPa

09:53 Uhr
12.08.2008

1024,6 hPa

23:43 Uhr
26.08.2008

10,8 km/h

W-SW

54,5 km/h

08:44 Uhr
13.08.2008

14,0 l/m

2:06 Stunden
07.08.2008

73 %

42 %

17:03 Uhr
06.08.2008

92 %

05:26 Uhr
09.08.2008

32,1 klux

115,0 klux

13:41 Uhr
03.08.2008

13:20 Std

am
06.08.2008

Gesamt

Gesamt

52,7 l/m

19 Tage
45:41 h

170:58 Std


Wetter-Diagramme August 2008     Heinzenberg / Taunus   
TemperaturLuftfeuchte
SolarstrahlungLuftdruck
HelligkeitSonnenschein
RegenmengeRegendauer
Wind-GeschwindigkeitWind-Richtung